Météo par heure à Alihanmahi

Ce jour, 21 Octobre, Mercredi

Heure Température Précipitation Vent Pression Humidité
00:00 +7°C° 0.1 mm 1 m/s 633 mmHg 92%
01:00 +6°C° 0.2 mm 1 m/s 633 mmHg 92%
02:00 +6°C° 0.2 mm 1 m/s 633 mmHg 93%
03:00 +6°C° 0 mm 1 m/s 633 mmHg 94%
04:00 +6°C° 0.2 mm 1 m/s 633 mmHg 94%
05:00 +6°C° 0.2 mm 1 m/s 634 mmHg 94%
06:00 +6°C° 0.2 mm 1 m/s 634 mmHg 94%
07:00 +6°C° 0.3 mm 1 m/s 634 mmHg 94%
08:00 +6°C° 0.3 mm 1 m/s 634 mmHg 94%
09:00 +6°C° 0 mm 1 m/s 635 mmHg 93%
10:00 +6°C° 0.1 mm 1 m/s 635 mmHg 89%
11:00 +7°C° 0.1 mm 1 m/s 635 mmHg 86%
12:00 +8°C° 0.1 mm 1 m/s 636 mmHg 83%
13:00 +8°C° 0 mm 1 m/s 636 mmHg 82%
14:00 +8°C° 0 mm 1 m/s 635 mmHg 80%
15:00 +8°C° 0 mm 2 m/s 635 mmHg 79%
16:00 +8°C° 0 mm 1 m/s 635 mmHg 83%
17:00 +7°C° 0 mm 1 m/s 635 mmHg 86%
18:00 +5°C° 0 mm 0 m/s 635 mmHg 90%
19:00 +5°C° 0 mm 0 m/s 635 mmHg 88%
20:00 +4°C° 0 mm 0 m/s 635 mmHg 86%
21:00 +4°C° 0 mm 0 m/s 635 mmHg 84%
22:00 +4°C° 0 mm 0 m/s 634 mmHg 82%
23:00 +4°C° 0 mm 0 m/s 634 mmHg 79%

Demain, 22 Octobre, Jeudi

Heure Température Précipitation Vent Pression Humidité
00:00 +5°C° 0 mm 1 m/s 634 mmHg 76%
01:00 +5°C° 0 mm 1 m/s 634 mmHg 73%
02:00 +5°C° 0 mm 1 m/s 633 mmHg 71%
03:00 +5°C° 0 mm 1 m/s 633 mmHg 69%
04:00 +5°C° 0 mm 1 m/s 633 mmHg 64%
05:00 +5°C° 0 mm 1 m/s 632 mmHg 59%
06:00 +5°C° 0 mm 1 m/s 632 mmHg 54%
07:00 +6°C° 0 mm 1 m/s 633 mmHg 49%
08:00 +7°C° 0 mm 0 m/s 634 mmHg 44%
09:00 +9°C° 0 mm 0 m/s 634 mmHg 39%
10:00 +11°C° 0 mm 1 m/s 634 mmHg 39%
11:00 +11°C° 0 mm 1 m/s 634 mmHg 40%
12:00 +12°C° 0 mm 2 m/s 634 mmHg 40%
13:00 +12°C° 0 mm 2 m/s 634 mmHg 43%
14:00 +12°C° 0 mm 1 m/s 634 mmHg 46%
15:00 +12°C° 0 mm 1 m/s 634 mmHg 49%
16:00 +10°C° 0 mm 1 m/s 633 mmHg 58%
17:00 +8°C° 0 mm 0 m/s 633 mmHg 67%
18:00 +6°C° 0 mm 0 m/s 632 mmHg 76%
19:00 +6°C° 0 mm 0 m/s 632 mmHg 74%
20:00 +6°C° 0 mm 0 m/s 633 mmHg 73%
21:00 +6°C° 0 mm 0 m/s 633 mmHg 71%
22:00 +6°C° 0 mm 0 m/s 633 mmHg 70%
23:00 +6°C° 0 mm 0 m/s 632 mmHg 69%

Après-demain, 23 Octobre, Vendredi

Heure Température Précipitation Vent Pression Humidité
00:00 +6°C° 0 mm 0 m/s 632 mmHg 68%
01:00 +5°C° 0 mm 0 m/s 632 mmHg 67%
02:00 +5°C° 0 mm 0 m/s 632 mmHg 66%
03:00 +6°C° 0 mm 1 m/s 632 mmHg 65%
04:00 +6°C° 0 mm 1 m/s 632 mmHg 65%
05:00 +5°C° 0 mm 1 m/s 632 mmHg 65%
06:00 +5°C° 0 mm 1 m/s 632 mmHg 64%
07:00 +7°C° 0 mm 1 m/s 632 mmHg 58%
08:00 +8°C° 0 mm 1 m/s 633 mmHg 52%
09:00 +10°C° 0 mm 1 m/s 634 mmHg 45%
10:00 +11°C° 0 mm 1 m/s 634 mmHg 43%
11:00 +12°C° 0 mm 1 m/s 635 mmHg 40%
12:00 +13°C° 0 mm 2 m/s 635 mmHg 37%
13:00 +13°C° 0 mm 2 m/s 635 mmHg 39%
14:00 +13°C° 0 mm 2 m/s 635 mmHg 41%
15:00 +13°C° 0 mm 2 m/s 634 mmHg 42%
16:00 +11°C° 0 mm 1 m/s 634 mmHg 49%
17:00 +10°C° 0 mm 1 m/s 634 mmHg 56%
18:00 +8°C° 0 mm 1 m/s 633 mmHg 63%
19:00 +9°C° 0 mm 1 m/s 633 mmHg 60%
20:00 +9°C° 0 mm 1 m/s 633 mmHg 57%
21:00 +9°C° 0 mm 1 m/s 633 mmHg 54%
22:00 +9°C° 0 mm 1 m/s 633 mmHg 51%
23:00 +8°C° 0 mm 1 m/s 633 mmHg 49%

24 Octobre, Samedi

Heure Température Précipitation Vent Pression Humidité
00:00 +8°C° 0 mm 1 m/s 632 mmHg 46%
01:00 +8°C° 0 mm 1 m/s 632 mmHg 45%
02:00 +7°C° 0 mm 2 m/s 632 mmHg 43%
03:00 +7°C° 0 mm 2 m/s 631 mmHg 42%
04:00 +7°C° 0 mm 2 m/s 631 mmHg 41%
05:00 +7°C° 0 mm 2 m/s 631 mmHg 40%
06:00 +7°C° 0 mm 2 m/s 631 mmHg 39%
07:00 +11°C° 0 mm 1 m/s 632 mmHg 35%
08:00 +13°C° 0 mm 1 m/s 633 mmHg 32%
09:00 +16°C° 0 mm 1 m/s 633 mmHg 29%
10:00 +18°C° 0 mm 1 m/s 634 mmHg 27%
11:00 +19°C° 0 mm 1 m/s 634 mmHg 26%
12:00 +19°C° 0 mm 2 m/s 634 mmHg 25%
13:00 +20°C° 0 mm 1 m/s 634 mmHg 27%
14:00 +20°C° 0 mm 1 m/s 633 mmHg 30%
15:00 +19°C° 0 mm 1 m/s 633 mmHg 33%
16:00 +16°C° 0 mm 1 m/s 632 mmHg 39%
17:00 +14°C° 0 mm 1 m/s 631 mmHg 44%
18:00 +12°C° 0 mm 1 m/s 631 mmHg 50%
19:00 +12°C° 0 mm 1 m/s 631 mmHg 49%
20:00 +12°C° 0 mm 1 m/s 631 mmHg 48%
21:00 +11°C° 0 mm 1 m/s 631 mmHg 47%
22:00 +11°C° 0 mm 1 m/s 631 mmHg 46%
23:00 +11°C° 0 mm 1 m/s 630 mmHg 46%

25 Octobre, Dimanche

Heure Température Précipitation Vent Pression Humidité
00:00 +11°C° 0 mm 1 m/s 630 mmHg 45%
01:00 +11°C° 0 mm 1 m/s 630 mmHg 44%
02:00 +10°C° 0 mm 2 m/s 630 mmHg 43%
03:00 +9°C° 0 mm 2 m/s 629 mmHg 42%
04:00 +9°C° 0 mm 2 m/s 629 mmHg 42%
05:00 +9°C° 0 mm 2 m/s 629 mmHg 42%
06:00 +9°C° 0 mm 2 m/s 629 mmHg 42%
07:00 +12°C° 0 mm 1 m/s 630 mmHg 39%
08:00 +14°C° 0 mm 1 m/s 631 mmHg 36%
09:00 +15°C° 0 mm 0 m/s 632 mmHg 32%
10:00 +18°C° 0 mm 1 m/s 632 mmHg 31%
11:00 +19°C° 0 mm 1 m/s 632 mmHg 30%
12:00 +19°C° 0 mm 2 m/s 632 mmHg 29%
13:00 +19°C° 0 mm 2 m/s 632 mmHg 32%
14:00 +18°C° 0 mm 2 m/s 631 mmHg 34%
15:00 +18°C° 0 mm 2 m/s 631 mmHg 37%
16:00 +16°C° 0 mm 1 m/s 630 mmHg 43%
17:00 +14°C° 0 mm 1 m/s 630 mmHg 50%
18:00 +12°C° 0 mm 1 m/s 629 mmHg 56%
19:00 +11°C° 0 mm 1 m/s 629 mmHg 55%
20:00 +11°C° 0 mm 1 m/s 629 mmHg 54%
21:00 +11°C° 0 mm 1 m/s 629 mmHg 53%
22:00 +11°C° 0 mm 1 m/s 629 mmHg 52%
23:00 +11°C° 0 mm 1 m/s 629 mmHg 51%

26 Octobre, Lundi

Heure Température Précipitation Vent Pression Humidité
00:00 +10°C° 0 mm 1 m/s 629 mmHg 50%
01:00 +10°C° 0 mm 1 m/s 629 mmHg 51%
02:00 +10°C° 0 mm 1 m/s 629 mmHg 52%
03:00 +10°C° 0 mm 1 m/s 629 mmHg 52%
04:00 +8°C° 0 mm 0 m/s 629 mmHg 54%
05:00 +8°C° 0 mm 0 m/s 629 mmHg 55%
06:00 +8°C° 0 mm 0 m/s 629 mmHg 56%
07:00 +9°C° 0 mm 0 m/s 629 mmHg 54%
08:00 +10°C° 0 mm 0 m/s 630 mmHg 51%
09:00 +11°C° 0 mm 0 m/s 630 mmHg 48%
10:00 +13°C° 0 mm 1 m/s 631 mmHg 46%
11:00 +14°C° 0 mm 1 m/s 631 mmHg 45%
12:00 +15°C° 0 mm 2 m/s 631 mmHg 43%
13:00 +15°C° 0 mm 2 m/s 631 mmHg 45%
14:00 +14°C° 0 mm 2 m/s 631 mmHg 47%
15:00 +14°C° 0 mm 2 m/s 631 mmHg 49%
16:00 +12°C° 0 mm 2 m/s 630 mmHg 57%
17:00 +11°C° 0 mm 1 m/s 630 mmHg 64%
18:00 +9°C° 0 mm 1 m/s 630 mmHg 72%
19:00 +8°C° 0 mm 1 m/s 629 mmHg 75%
20:00 +7°C° 0 mm 0 m/s 629 mmHg 77%
21:00 +7°C° 0 mm 0 m/s 629 mmHg 79%
22:00 +6°C° 0 mm 0 m/s 629 mmHg 80%
23:00 +6°C° 0 mm 0 m/s 629 mmHg 80%

27 Octobre, Mardi

Heure Température Précipitation Vent Pression Humidité
00:00 +5°C° 0 mm 0 m/s 629 mmHg 81%
01:00 +5°C° 0 mm 0 m/s 629 mmHg 82%
02:00 +6°C° 0 mm 1 m/s 629 mmHg 83%
03:00 +6°C° 0 mm 1 m/s 628 mmHg 84%
04:00 +5°C° 0 mm 1 m/s 628 mmHg 84%
05:00 +5°C° 0 mm 1 m/s 629 mmHg 84%
06:00 +5°C° 0 mm 1 m/s 629 mmHg 83%
07:00 +6°C° 0 mm 1 m/s 629 mmHg 80%
08:00 +7°C° 0 mm 1 m/s 630 mmHg 76%
09:00 +9°C° 0 mm 1 m/s 630 mmHg 73%
10:00 +8°C° 0 mm 2 m/s 631 mmHg 71%
11:00 +9°C° 0 mm 2 m/s 631 mmHg 70%
12:00 +9°C° 0 mm 2 m/s 631 mmHg 68%
13:00 +9°C° 0 mm 2 m/s 631 mmHg 72%
14:00 +8°C° 0 mm 2 m/s 630 mmHg 75%
15:00 +8°C° 0 mm 2 m/s 630 mmHg 78%
16:00 +7°C° 0 mm 2 m/s 630 mmHg 81%
17:00 +7°C° 0 mm 1 m/s 630 mmHg 84%
18:00 +7°C° 0 mm 1 m/s 630 mmHg 86%
19:00 +7°C° 0 mm 1 m/s 630 mmHg 87%
20:00 +6°C° 0 mm 1 m/s 630 mmHg 88%
21:00 +5°C° 0 mm 0 m/s 630 mmHg 89%
22:00 +5°C° 0 mm 0 m/s 630 mmHg 89%
23:00 +4°C° 0 mm 0 m/s 630 mmHg 89%
Voir plus

Nous avons besoin de votre consentement

Meteoprog et ses fournisseurs de services peuvent stocker et accéder à des données personnelles telles que des cookies, des identifiants d'appareils ou d'autres technologies similaires sur votre appareil et traiter ces données pour personnaliser le contenu et les publicités, ainsi que pour fournir des fonctionnalités de médias sociaux et analyser le trafic.

  • Stocker et/ou accéder à des informations sur votre appareil

    Des cookies, des identifiants d'appareils ou d'autres informations peuvent être stockés ou accessibles sur votre appareil aux fins indiquées ci-dessus.

  • Annonces et contenus personnalisés, mesure des annonces et des contenus, connaissance de l'audience et développement de produits

    Les annonces et le contenu peuvent être personnalisés en fonction d'un profil. D'autres données peuvent être ajoutées pour mieux personnaliser les annonces et le contenu. Les performances des publicités et du contenu peuvent être mesurées. Il est possible d'obtenir des informations sur le public qui a vu les publicités et le contenu. Ces données peuvent être utilisées pour développer ou améliorer l'expérience de l'utilisateur, les systèmes et les logiciels.

En cliquant sur "J'accepte", vous autorisez l'utilisation de cookies, des identifiants d'appareils, des balises web ou d'autres technologies similaires. Vos paramètres peuvent être modifiés dans le navigateur de votre appareil.

Dans certains cas, des intérêts légitimes peuvent être invoqués plutôt qu'un consentement. Vous pouvez en savoir plus à ce sujet dans notre Politique de confidentialité et de cookies.